#timestamp,LO_Frequency,Hit,StdDev 
1604736015.2,286046999.8,N
1604736035.1,286047002.3,N
1604736036.0,286047002.3,N
1604736055.8,286047001.6,N
1604736075.7,286047001.9,N
1604736095.5,286047001.8,N
1604736115.3,286047007.6,Y
1604736135.2,286047007.2,P
1604736155.0,286047004.1,N
1604736155.9,286047004.1,N
1604736175.8,286047003.3,N
1604736195.6,286047005.4,N
1604736215.4,286047004.9,N
1604736235.3,286047007.6,Y
1604736255.1,286047000.7,P
1604736275.8,286046998.7,N
1604736295.7,286046997.1,N
1604736315.5,286046997.4,N
1604736335.4,286046997.0,N
1604736355.2,286046998.8,N
1604736375.0,286046999.1,N
1604736375.9,286046999.1,N
1604736395.8,286046997.3,N
1604736415.6,286047000.5,N
1604736435.4,286046998.1,N
1604736455.3,286046999.4,N
1604736475.1,286046996.8,N
1604736495.9,286046999.9,N
1604736515.7,286046998.4,N
1604736535.5,286047000.7,N
1604736555.4,286047002.0,N
1604736575.2,286047001.8,N
1604736595.0,286047002.5,N
1604736596.0,286047002.5,N
1604736615.8,286047002.6,N
1604736635.6,286047002.2,N
1604736655.5,286046999.8,N
1604736675.3,286047001.1,N
1604736695.1,286046998.6,N
1604736715.9,286046998.4,N
1604736735.7,286047000.3,N
1604736755.5,286046998.7,N
1604736775.4,286046998.5,N
1604736795.2,286047001.0,N
1604736815.1,286046999.4,N
1604736816.0,286046999.4,N
1604736835.8,286046999.6,N
1604736855.6,286046998.4,N
1604736875.5,286046999.9,N
1604736895.3,286046999.8,N
1604736915.1,286047002.1,N
1604736935.9,286047002.1,N
1604736955.7,286047000.3,N
1604736975.6,286046996.5,N
1604736995.4,286047000.8,N
1604737015.2,286047000.1,N
1604737035.1,286046999.3,N
1604737036.0,286046999.3,N
1604737055.8,286046998.7,N
1604737075.7,286047002.8,N
1604737095.5,286047000.7,N
1604737115.3,286046999.8,N
1604737135.2,286046998.6,N
1604737155.0,286046997.0,N
1604737155.9,286046997.0,N
1604737175.7,286046996.6,N
1604737195.6,286046997.7,N
1604737215.4,286046998.5,N
1604737235.3,286047001.1,N
1604737255.1,286046998.6,N
1604737256.0,286046998.6,N
1604737275.8,286047000.5,N
1604737295.7,286047000.4,N
1604737315.5,286047002.6,N
1604737335.4,286047000.0,N
1604737355.2,286047003.7,N
1604737375.0,286047002.1,N
1604737375.9,286047002.1,N
1604737395.8,286047002.1,N
1604737415.6,286047001.3,N
1604737435.4,286047006.0,Y
1604737455.3,286047003.5,P
1604737475.1,286047004.3,N
1604737495.9,286047003.9,N
1604737515.7,286047003.9,N
1604737535.5,286047005.8,Y
1604737555.4,286047001.5,P
1604737575.2,286047002.4,N
1604737595.1,286047004.0,P
1604737596.0,286047004.0,Y
1604737615.8,286046998.6,P
1604737635.6,286046998.4,N
1604737655.5,286046998.6,N
1604737675.3,286046999.4,N
1604737695.1,286047001.0,N
1604737715.9,286046995.0,Y
1604737735.7,286046995.0,P
1604737755.6,286046995.2,N
1604737775.4,286046997.9,N
1604737795.2,286046995.5,N
1604737815.1,286046995.9,N
1604737816.0,286046995.9,N
1604737835.8,286046997.4,N
1604737855.7,286046995.4,N
1604737875.5,286046993.8,Y
1604737895.3,286047001.1,P
1604737915.2,286046999.5,N
1604737935.0,286046998.2,N
1604737935.9,286046998.2,N
1604737955.7,286046997.7,N
1604737975.6,286046997.2,N
1604737995.4,286046996.7,N
1604738015.3,286046994.9,Y
1604738035.1,286046997.1,P
1604738055.8,286046999.1,N
1604738075.7,286046999.1,N
1604738095.5,286046999.8,N
1604738115.4,286046998.1,N
1604738135.2,286046998.4,N
1604738155.0,286046999.1,N
1604738155.9,286046999.1,N
1604738175.8,286046996.9,Y
1604738195.6,286046999.7,P
1604738215.5,286047002.6,P
1604738235.3,286047001.7,N
1604738255.1,286047003.5,N
1604738275.9,286047001.3,N
1604738295.7,286047002.9,N
1604738315.6,286047005.3,Y
1604738335.4,286046999.8,P
1604738355.2,286046996.5,P
1604738375.1,286046999.5,N
1604738376.0,286046999.5,N
1604738395.8,286046996.5,N
1604738415.6,286046998.3,N
1604738435.5,286046999.2,N
1604738455.3,286046997.8,N
1604738475.2,286046995.0,Y
1604738495.9,286046998.8,P
1604738515.7,286046999.9,P
1604738535.6,286047000.3,N
1604738555.4,286047000.0,N
1604738575.2,286046998.3,N
1604738595.1,286047004.0,Y
1604738596.0,286047004.0,P
1604738615.8,286047003.0,N
1604738635.7,286047006.3,P
1604738655.5,286047013.5,Y
1604738675.3,286047007.8,P
1604738695.2,286047007.8,P
1604738715.0,286047007.9,P
1604738715.9,286047007.9,Y
1604738735.8,286047002.8,P
1604738755.6,286047004.2,N
1604738775.4,286047003.9,N
1604738795.3,286047001.8,N
1604738815.1,286047000.6,N
1604738835.8,286046998.1,N
1604738855.7,286046998.5,N
1604738875.5,286047000.6,N
1604738895.4,286047004.3,N
1604738915.2,286047001.3,N
1604738935.0,286047005.5,N
1604738935.9,286047005.5,N
1604738955.8,286047006.7,N
1604738975.6,286047008.3,Y
1604738995.4,286047006.1,P
1604739015.3,286047008.9,P
1604739035.1,286047011.6,P
1604739055.9,286047010.1,Y
1604739075.7,286047003.6,P
1604739095.5,286047001.7,N
1604739115.4,286047001.3,N
1604739135.2,286047000.9,N
1604739155.0,286047001.3,N
1604739155.9,286047001.3,N
1604739175.8,286047005.2,N
1604739195.6,286047005.6,N
1604739215.5,286047001.8,N
1604739235.3,286047003.8,N
1604739255.1,286047004.2,N
1604739275.9,286046999.8,N
1604739295.7,286047002.0,N
1604739315.5,286047002.8,N
1604739335.4,286047003.7,N
1604739355.2,286047003.4,N
1604739375.1,286047003.1,N
1604739376.0,286047003.1,N
1604739395.8,286047004.0,N
1604739415.6,286047002.9,N
1604739435.5,286047008.7,Y
1604739455.3,286047002.4,P
1604739475.1,286047002.5,P
1604739495.9,286046999.9,N
1604739515.7,286047001.8,N
1604739535.6,286047000.3,N
1604739555.4,286046998.4,N
1604739575.2,286046998.9,N
1604739595.1,286047001.2,N
1604739596.0,286047001.2,N
